Hourly Data Report for February 16, 2018

TORONTO CITY
ONTARIO

43°40'00.000" N
79°24'00.000" W
112.50 m
6158355
71508
XTO

Download Data

Hourly Data (February 2018)
Hourly Data Report for February 16, 2018
TIME
LST
Temp Definition
°C
Dew Point Definition
°C
Rel Hum Definition
%
Precip. Amount Definition
mm

Wind Dir Definition
10's deg

Wind Spd Definition
km/h
Visibility Definition
km
Stn Press Definition
kPa
Hmdx Definition


Wind Chill Definition


Weather Definition


00:00 5.2 1.8 78 0.0 LegendMM LegendMM   99.10     LegendNANA
01:00 4.8 0.1 72 0.0 LegendMM LegendMM   99.13     LegendNANA
02:00 4.1 -0.3 73 0.0 LegendMM LegendMM   99.13     LegendNANA
03:00 3.5 -0.7 74 0.0 LegendMM LegendMM   99.16     LegendNANA
04:00 3.2 -0.7 76 0.0 LegendMM LegendMM   99.15     LegendNANA
05:00 2.7 -0.8 78 0.0 LegendMM LegendMM   99.19     LegendNANA
06:00 2.4 -0.8 79 0.0 LegendMM LegendMM   99.24     LegendNANA
07:00 2.2 -1.3 78 0.0 LegendMM LegendMM   99.26     LegendNANA
08:00 2.1 -1.5 77 0.0 LegendMM LegendMM   99.41     LegendNANA
09:00 0.9 -2.8 77 0.0 LegendMM LegendMM   99.53     LegendNANA
10:00 0.6 -3.7 73 0.0 LegendMM LegendMM   99.62     LegendNANA
11:00 0.0 -5.2 68 0.0 LegendMM LegendMM   99.74     LegendNANA
12:00 -0.1 -7.2 59 0.0 LegendMM LegendMM   99.86     LegendNANA
13:00 0.3 -8.8 50 0.0 LegendMM LegendMM   99.99     LegendNANA
14:00 -0.8 -9.2 53 0.0 LegendMM LegendMM   100.11     LegendNANA
15:00 -1.3 -10.7 49 0.0 LegendMM LegendMM   100.24     LegendNANA
16:00 -1.2 -10.0 51 0.0 LegendMM LegendMM   100.42     LegendNANA
17:00 -1.8 -13.1 42 0.0 LegendMM LegendMM   100.57     LegendNANA
18:00 -2.8 -13.0 46 0.0 LegendMM LegendMM   100.73     LegendNANA
19:00 -3.3 -11.5 53 0.0 LegendMM LegendMM   100.89     LegendNANA
20:00 -4.0 -11.8 55 0.0 LegendMM LegendMM   100.94     LegendNANA
21:00 -4.5 -11.6 58 0.0 LegendMM LegendMM   100.96     LegendNANA
22:00 -4.5 -11.3 59 0.0 LegendMM LegendMM   101.04     LegendNANA
23:00 -4.6 -11.0 61 0.0 LegendMM LegendMM   101.08     LegendNANA

Notes on Data Quality.

Legend

  • E = Estimated
  • M = Missing
  • NA = Not Available*
  • [empty] = Indicates an unobserved value
Date modified: